Regional Weather Roundup
Issued by NWS Goodland, KS

Home | Current Version | Previous Version | Text Only | Print | Product List | Glossary Off
Versions: 1 2 3 4 5 6 7 8 9 10 11 12 13 14 15 16 17 18 19 20 21 22 23 24 25 26 27 28 29 30 31 32 33 34 35 36 37 38 39 40 41 42 43 44 45 46 47 48 49 50

000
ASUS43 KGLD 190808
RWRGLD

GOODLAND FORECAST AREA HOURLY WEATHER ROUNDUP
NATIONAL WEATHER SERVICE GOODLAND KS
200 AM MDT THU OCT 19 2017

...OFFICIAL OBSERVATIONS...

CITY           SKY/WX    TMP DP  RH WIND       PRES   REMARKS
GOODLAND KS    CLOUDY    45  34  65 S7        30.09F
HILL CITY KS   CLEAR     43  37  79 N6        30.07F
IMPERIAL NEB   CLOUDY    42  33  70 W3        30.10S
MCCOOK NEB     CLOUDY    40  34  79 NW3       30.09S
AKRON CO       CLOUDY    49  29  46 S15       30.10F
BURLINGTON CO  CLOUDY    43  33  68 S9        30.12S
LIMON CO       CLOUDY    31  26  82 CALM      30.16F
$$

...UNOFFICIAL OBSERVATIONS...

CITY           SKY/WX    TMP DP  RH WIND       PRES   REMARKS
LENORA KS        N/A     48  32  54 MISG        N/A
NORTON KS      CLEAR     43  30  61 CALM      30.06S
SHARON SPRINGS   N/A     41  32  69 CALM        N/A
TRENTON NEB      N/A     48  32  54 CALM        N/A
YUMA CO        FAIR      32  28  86 SW3       30.10F
$$




USA.gov is the U.S. government's official web portal to all federal, state and local government web resources and services.